Total_Precipitation_Accumulation
0.01 0.04 0.10 0.10 0.06 0.09 0.20 0.24 0.06 0.01 0.00 0.00 0.00 0.00 0.00 0.00 0.01 0.03 0.00 0.00 0.00 0.00 0.00 0.00 0.00 0.01 0.03 0.05 0.05 0.06 0.05 0.02 0.01 0.01 0.03 0.06 0.03 0.01 0.00 0.00 0.00 0.00 0.00 0.00 0.01 0.01 0.01 0.00 0.00
0.00 0.03 0.07 0.07 0.07 0.10 0.21 0.27 0.08 0.03 0.01 0.00 0.00 0.00 0.00 0.00 0.00 0.00 0.00 0.00 0.00 0.00 0.00 0.00 0.00 0.01 0.02 0.03 0.05 0.07 0.06 0.03 0.02 0.04 0.06 0.07 0.04 0.01 0.00 0.00 0.00 0.00 0.00 0.00 0.00 0.01 0.00 0.00 0.00
0.00 0.01 0.04 0.04 0.12 0.13 0.12 0.15 0.03 0.01 0.00 0.00 0.00 0.00 0.00 0.00 0.00 0.00 0.00 0.00 0.00 0.00 0.00 0.01 0.01 0.01 0.02 0.02 0.03 0.07 0.09 0.06 0.05 0.08 0.09 0.07 0.06 0.04 0.02 0.02 0.02 0.02 0.00 0.00 0.00 0.01 0.01 0.00 0.00
0.00 0.00 0.01 0.02 0.10 0.12 0.08 0.06 0.04 0.02 0.00 0.00 0.00 0.00 0.00 0.00 0.00 0.00 0.00 0.00 0.00 0.00 0.00 0.00 0.02 0.02 0.02 0.02 0.02 0.04 0.09 0.08 0.06 0.08 0.11 0.09 0.11 0.12 0.07 0.03 0.04 0.05 0.02 0.01 0.01 0.00 0.00 0.01 0.01
0.00 0.00 0.00 0.01 0.06 0.11 0.10 0.06 0.04 0.02 0.00 0.00 0.00 0.00 0.00 0.00 0.00 0.00 0.00 0.00 0.00 0.00 0.00 0.00 0.02 0.02 0.01 0.02 0.03 0.03 0.05 0.06 0.04 0.05 0.05 0.05 0.08 0.15 0.11 0.07 0.05 0.05 0.03 0.02 0.01 0.01 0.01 0.01 0.01
0.00 0.00 0.00 0.01 0.03 0.06 0.07 0.05 0.04 0.04 0.01 0.00 0.00 0.00 0.00 0.00 0.00 0.00 0.00 0.00 0.00 0.00 0.00 0.00 0.01 0.01 0.01 0.00 0.02 0.04 0.04 0.02 0.01 0.01 0.01 0.01 0.02 0.03 0.06 0.07 0.06 0.04 0.02 0.02 0.01 0.01 0.01 0.01 0.02
0.00 0.00 0.00 0.00 0.01 0.01 0.03 0.03 0.02 0.02 0.01 0.01 0.00 0.01 0.01 0.00 0.00 0.00 0.00 0.00 0.00 0.00 0.00 0.00 0.00 0.01 0.00 0.00 0.01 0.02 0.02 0.02 0.01 0.00 0.00 0.01 0.01 0.02 0.05 0.05 0.05 0.05 0.04 0.03 0.02 0.02 0.02 0.02 0.02
0.00 0.00 0.00 0.00 0.00 0.00 0.00 0.01 0.01 0.01 0.01 0.01 0.00 0.01 0.01 0.00 0.00 0.00 0.00 0.00 0.00 0.00 0.00 0.00 0.00 0.01 0.01 0.01 0.01 0.02 0.02 0.01 0.01 0.00 0.00 0.00 0.01 0.02 0.03 0.03 0.03 0.06 0.07 0.04 0.03 0.02 0.02 0.03 0.02
0.00 0.00 0.00 0.00 0.00 0.00 0.00 0.01 0.02 0.01 0.02 0.02 0.00 0.01 0.01 0.00 0.00 0.00 0.00 0.00 0.00 0.00 0.00 0.00 0.00 0.01 0.01 0.01 0.00 0.01 0.01 0.01 0.01 0.02 0.02 0.02 0.01 0.04 0.07 0.05 0.05 0.06 0.07 0.07 0.06 0.07 0.07 0.06 0.03
0.00 0.00 0.00 0.00 0.00 0.00 0.00 0.01 0.01 0.01 0.02 0.01 0.01 0.02 0.01 0.00 0.00 0.00 0.00 0.00 0.00 0.00 0.00 0.00 0.00 0.00 0.01 0.00 0.00 0.00 0.00 0.00 0.00 0.01 0.05 0.07 0.10 0.10 0.05 0.06 0.09 0.15 0.20 0.16 0.14 0.16 0.12 0.10 0.08
0.00 0.00 0.00 0.00 0.00 0.00 0.00 0.00 0.00 0.01 0.03 0.04 0.05 0.07 0.03 0.01 0.00 0.00 0.00 0.00 0.00 0.00 0.00 0.00 0.00 0.00 0.00 0.00 0.00 0.00 0.00 0.00 0.00 0.00 0.03 0.06 0.06 0.03 0.00 0.03 0.08 0.13 0.20 0.18 0.27 0.33 0.28 0.28 0.25
0.00 0.00 0.00 0.00 0.00 0.00 0.00 0.00 0.00 0.02 0.07 0.12 0.13 0.13 0.07 0.02 0.01 0.00 0.00 0.00 0.00 0.01 0.01 0.00 0.01 0.01 0.00 0.00 0.00 0.00 0.00 0.00 0.00 0.00 0.00 0.02 0.02 0.01 0.02 0.08 0.13 0.15 0.16 0.25 0.24 0.32 0.30 0.20 0.15
0.00 0.00 0.00 0.00 0.00 0.00 0.00 0.00 0.01 0.01 0.04 0.17 0.24 0.17 0.04 0.03 0.02 0.01 0.01 0.01 0.01 0.02 0.02 0.02 0.02 0.03 0.02 0.02 0.01 0.01 0.00 0.00 0.00 0.01 0.01 0.01 0.02 0.05 0.08 0.08 0.11 0.06 0.12 0.19 0.21 0.19 0.25 0.28 0.22
0.00 0.00 0.00 0.00 0.00 0.00 0.00 0.00 0.00 0.02 0.03 0.13 0.22 0.20 0.06 0.03 0.02 0.06 0.10 0.08 0.04 0.04 0.04 0.05 0.06 0.07 0.07 0.07 0.06 0.04 0.03 0.03 0.02 0.02 0.03 0.03 0.05 0.12 0.19 0.19 0.20 0.19 0.22 0.30 0.34 0.33 0.51 0.44 0.36
0.00 0.00 0.00 0.00 0.00 0.00 0.00 0.00 0.01 0.03 0.02 0.08 0.17 0.17 0.08 0.03 0.03 0.04 0.07 0.13 0.18 0.20 0.14 0.12 0.12 0.13 0.17 0.16 0.13 0.14 0.15 0.10 0.08 0.09 0.10 0.12 0.15 0.25 0.35 0.40 0.41 0.46 0.46 0.53 0.57 0.61 0.69 0.52 0.48
0.00 0.00 0.00 0.00 0.00 0.00 0.00 0.00 0.00 0.00 0.01 0.03 0.11 0.20 0.16 0.13 0.15 0.14 0.16 0.24 0.28 0.23 0.20 0.24 0.31 0.30 0.29 0.28 0.31 0.34 0.30 0.24 0.23 0.23 0.23 0.27 0.34 0.45 0.59 0.62 0.61 0.77 0.83 0.85 0.92 0.95 0.88 0.75 0.63
0.00 0.00 0.00 0.00 0.00 0.00 0.00 0.00 0.00 0.01 0.02 0.05 0.10 0.21 0.31 0.38 0.46 0.46 0.36 0.28 0.29 0.30 0.37 0.45 0.48 0.45 0.44 0.48 0.51 0.55 0.57 0.48 0.44 0.45 0.43 0.50 0.60 0.71 0.83 0.77 0.85 1.04 1.10 1.15 1.06 1.11 1.03 0.95 0.85
0.00 0.00 0.00 0.00 0.00 0.00 0.00 0.00 0.00 0.01 0.03 0.07 0.18 0.35 0.51 0.74 0.94 0.81 0.61 0.43 0.35 0.36 0.42 0.44 0.49 0.60 0.79 0.86 0.82 0.82 0.73 0.63 0.61 0.66 0.72 0.80 0.85 0.96 1.10 1.00 1.08 1.24 1.32 1.27 1.28 1.28 1.25 1.13 1.05
0.00 0.00 0.00 0.00 0.00 0.00 0.00 0.00 0.01 0.01 0.03 0.05 0.12 0.34 0.58 0.63 0.74 0.69 0.49 0.43 0.43 0.55 0.60 0.69 0.86 0.95 1.06 1.03 0.90 0.90 0.87 0.90 0.90 0.89 0.87 0.89 0.90 1.00 1.19 1.14 1.24 1.26 1.22 1.25 1.36 1.43 1.27 1.12 1.19
0.00 0.00 0.00 0.00 0.00 0.00 0.00 0.00 0.01 0.01 0.02 0.03 0.06 0.12 0.25 0.37 0.43 0.46 0.42 0.44 0.63 0.81 0.84 0.89 0.92 0.96 1.09 1.26 1.33 1.38 1.44 1.27 1.13 1.08 1.00 0.97 1.04 1.11 1.13 1.15 1.15 1.15 1.23 1.28 1.33 1.48 1.29 0.99 1.08
0.00 0.00 0.00 0.00 0.00 0.00 0.00 0.00 0.00 0.01 0.03 0.08 0.12 0.19 0.27 0.36 0.46 0.52 0.51 0.52 0.60 0.68 0.77 0.90 0.98 1.04 1.16 1.34 1.48 1.52 1.55 1.38 1.27 1.18 1.11 1.02 1.04 1.03 1.05 1.06 1.16 1.32 1.39 1.29 1.28 1.33 1.24 0.99 0.94
0.00 0.00 0.00 0.00 0.00 0.00 0.00 0.00 0.00 0.01 0.04 0.09 0.16 0.25 0.34 0.42 0.47 0.52 0.54 0.54 0.56 0.59 0.70 0.88 1.01 1.06 1.16 1.29 1.37 1.37 1.37 1.25 1.24 1.27 1.16 1.07 1.01 0.98 0.98 1.01 1.05 1.08 1.10 1.07 1.00 1.08 1.16 1.08 0.92
0.00 0.00 0.00 0.00 0.00 0.00 0.00 0.00 0.00 0.01 0.02 0.08 0.18 0.28 0.40 0.46 0.44 0.42 0.48 0.50 0.50 0.58 0.70 0.80 0.89 0.94 0.98 1.01 1.05 1.08 1.08 1.09 1.11 1.05 0.97 0.90 0.86 0.86 0.86 0.83 0.82 0.77 0.79 0.86 0.90 0.95 0.99 1.00 0.94
0.00 0.00 0.00 0.00 0.00 0.00 0.01 0.01 0.01 0.02 0.03 0.08 0.23 0.35 0.47 0.54 0.54 0.54 0.55 0.56 0.57 0.66 0.76 0.81 0.82 0.80 0.78 0.76 0.79 0.83 0.86 0.89 0.90 0.88 0.88 0.84 0.81 0.74 0.71 0.72 0.72 0.69 0.72 0.80 0.84 0.86 0.82 0.85 0.88
0.00 0.01 0.06 0.04 0.01 0.01 0.02 0.03 0.04 0.06 0.04 0.09 0.26 0.46 0.57 0.56 0.52 0.51 0.52 0.55 0.58 0.58 0.58 0.61 0.59 0.54 0.50 0.48 0.50 0.53 0.56 0.60 0.65 0.68 0.68 0.63 0.58 0.55 0.55 0.55 0.62 0.64 0.71 0.72 0.71 0.76 0.80 0.85 0.86
0.02 0.05 0.20 0.18 0.05 0.02 0.02 0.02 0.09 0.11 0.14 0.26 0.40 0.50 0.52 0.46 0.43 0.41 0.39 0.38 0.40 0.40 0.39 0.42 0.44 0.46 0.45 0.41 0.39 0.35 0.32 0.33 0.36 0.40 0.46 0.45 0.43 0.42 0.44 0.51 0.60 0.66 0.70 0.70 0.72 0.71 0.73 0.80 0.84
0.05 0.09 0.11 0.24 0.18 0.12 0.02 0.02 0.10 0.16 0.30 0.53 0.68 0.68 0.60 0.47 0.38 0.33 0.29 0.26 0.25 0.27 0.31 0.36 0.40 0.43 0.47 0.46 0.40 0.33 0.27 0.25 0.25 0.29 0.36 0.39 0.41 0.38 0.40 0.46 0.56 0.69 0.79 0.82 0.80 0.79 0.82 0.93 0.98
0.04 0.06 0.07 0.20 0.21 0.19 0.06 0.04 0.14 0.36 0.50 0.61 0.72 0.65 0.49 0.37 0.29 0.25 0.21 0.19 0.19 0.20 0.25 0.32 0.37 0.37 0.38 0.39 0.36 0.29 0.25 0.23 0.24 0.25 0.28 0.30 0.32 0.34 0.39 0.46 0.54 0.59 0.66 0.70 0.69 0.77 0.85 0.93 0.94
0.06 0.10 0.16 0.24 0.23 0.26 0.21 0.17 0.23 0.36 0.52 0.61 0.61 0.50 0.35 0.26 0.19 0.17 0.17 0.18 0.18 0.17 0.22 0.29 0.36 0.39 0.41 0.40 0.39 0.32 0.26 0.23 0.22 0.21 0.22 0.26 0.29 0.32 0.37 0.43 0.43 0.44 0.45 0.48 0.51 0.61 0.73 0.77 0.72
0.04 0.08 0.17 0.27 0.24 0.24 0.26 0.19 0.13 0.17 0.25 0.32 0.34 0.30 0.25 0.20 0.18 0.20 0.22 0.22 0.20 0.21 0.26 0.32 0.37 0.42 0.46 0.48 0.50 0.45 0.38 0.34 0.30 0.25 0.22 0.21 0.23 0.27 0.30 0.32 0.33 0.33 0.36 0.41 0.47 0.55 0.61 0.64 0.59